TimeEST,TemperatureF,Dew PointF,Humidity,Sea Level PressureIn,VisibilityMPH,Wind Direction,Wind SpeedMPH,Gust SpeedMPH,PrecipitationIn,Events,Conditions,WindDirDegrees,DateUTC
12:00 AM,41.0,39.2,93,29.79,4.0,ENE,17.3,23.0,N/A,,Overcast,70,2013-02-27 05:00:00
12:22 AM,41.0,39.2,93,29.77,5.0,ENE,18.4,26.5,N/A,Rain,Light Rain,60,2013-02-27 05:22:00
12:40 AM,41.0,41.0,100,29.77,6.0,ENE,11.5,26.5,N/A,Rain,Light Rain,70,2013-02-27 05:40:00
12:50 AM,41.0,41.0,100,29.76,5.0,ENE,20.7,27.6,N/A,Rain,Light Rain,60,2013-02-27 05:50:00
12:53 AM,41.0,41.0,100,29.75,4.0,ENE,19.6,27.6,N/A,Rain,Light Rain,60,2013-02-27 05:53:00
12:55 AM,41.5,40.5,96,29.75,4.0,ENE,18.4,27.6,0.08,Rain,Light Rain,60,2013-02-27 05:55:00
1:13 AM,41.0,41.0,100,29.72,3.0,ENE,24.2,29.9,N/A,,Overcast,60,2013-02-27 06:13:00
1:16 AM,42.8,41.0,93,29.72,4.0,ENE,21.9,29.9,N/A,,Overcast,60,2013-02-27 06:16:00
1:24 AM,42.8,41.0,93,29.71,4.0,ENE,18.4,-,N/A,Rain,Light Rain,60,2013-02-27 06:24:00
1:41 AM,42.8,41.0,93,29.70,5.0,ENE,19.6,25.3,N/A,Rain,Light Rain,60,2013-02-27 06:41:00
1:42 AM,42.8,41.0,93,29.70,5.0,ENE,19.6,25.3,N/A,Rain,Light Rain,60,2013-02-27 06:42:00
1:46 AM,42.8,41.0,93,29.69,5.0,ENE,21.9,26.5,N/A,Rain,Light Rain,60,2013-02-27 06:46:00
1:55 AM,42.6,42.1,98,29.68,4.0,ENE,21.9,26.5,0.06,Rain,Light Rain,60,2013-02-27 06:55:00
2:09 AM,42.8,42.8,100,29.67,3.0,ENE,18.4,24.2,N/A,Rain,Light Rain,60,2013-02-27 07:09:00
2:12 AM,42.8,42.8,100,29.67,3.0,ENE,20.7,24.2,N/A,Rain,Light Rain,70,2013-02-27 07:12:00
2:48 AM,42.8,42.8,100,29.65,2.5,ENE,13.8,26.5,N/A,Rain,Light Rain,60,2013-02-27 07:48:00
2:50 AM,42.8,42.8,100,29.64,2.5,ENE,15.0,26.5,N/A,Rain,Light Rain,60,2013-02-27 07:50:00
2:54 AM,42.8,42.8,100,29.64,3.0,ENE,16.1,26.5,N/A,Rain,Light Rain,60,2013-02-27 07:54:00
2:55 AM,43.2,43.0,99,29.64,3.0,ENE,17.3,26.5,0.07,Rain,Light Rain,60,2013-02-27 07:55:00
3:00 AM,42.8,42.8,100,29.63,4.0,NE,18.4,-,N/A,Rain,Light Rain,50,2013-02-27 08:00:00
3:08 AM,42.8,42.8,100,29.63,5.0,NE,15.0,24.2,N/A,Rain,Light Rain,50,2013-02-27 08:08:00
3:10 AM,42.8,42.8,100,29.62,5.0,ENE,15.0,24.2,N/A,,Overcast,60,2013-02-27 08:10:00
3:11 AM,42.8,42.8,100,29.62,5.0,ENE,15.0,24.2,N/A,,Overcast,60,2013-02-27 08:11:00
3:28 AM,42.8,42.8,100,29.61,6.0,ENE,13.8,23.0,N/A,Rain,Light Rain,60,2013-02-27 08:28:00
3:36 AM,42.8,42.8,100,29.61,4.0,ENE,19.6,-,N/A,Rain,Light Rain,60,2013-02-27 08:36:00
3:38 AM,42.8,42.8,100,29.61,4.0,NE,15.0,23.0,N/A,Rain,Light Rain,50,2013-02-27 08:38:00
3:55 AM,43.3,43.0,99,29.60,5.0,NE,15.0,-,0.04,Rain,Light Rain,50,2013-02-27 08:55:00
4:08 AM,42.8,42.8,100,29.60,4.0,NE,15.0,-,N/A,Rain,Light Rain,50,2013-02-27 09:08:00
4:27 AM,44.6,42.8,93,29.59,5.0,NE,15.0,-,N/A,Rain,Light Rain,50,2013-02-27 09:27:00
4:35 AM,44.6,42.8,93,29.58,6.0,NE,16.1,-,N/A,,Overcast,50,2013-02-27 09:35:00
4:42 AM,44.6,42.8,93,29.57,6.0,NE,16.1,-,N/A,,Overcast,50,2013-02-27 09:42:00
4:52 AM,44.6,44.6,100,29.57,6.0,NE,16.1,-,N/A,,Overcast,50,2013-02-27 09:52:00
4:55 AM,44.1,43.9,99,29.57,6.0,NE,16.1,-,0.03,,Overcast,50,2013-02-27 09:55:00
4:58 AM,44.6,44.6,100,29.57,6.0,NE,15.0,-,N/A,,Overcast,50,2013-02-27 09:58:00
5:02 AM,44.6,44.6,100,29.57,6.0,NE,13.8,-,N/A,,Overcast,50,2013-02-27 10:02:00
5:06 AM,44.6,44.6,100,29.56,6.0,NE,15.0,-,N/A,,Overcast,50,2013-02-27 10:06:00
5:12 AM,44.6,44.6,100,29.56,5.0,NE,17.3,-,N/A,,Overcast,50,2013-02-27 10:12:00
5:13 AM,44.6,44.6,100,29.55,5.0,NE,16.1,-,N/A,,Overcast,50,2013-02-27 10:13:00
5:20 AM,44.6,44.6,100,29.56,6.0,NE,15.0,-,N/A,,Overcast,50,2013-02-27 10:20:00
5:33 AM,44.6,44.6,100,29.55,6.0,NE,15.0,-,N/A,,Overcast,40,2013-02-27 10:33:00
5:52 AM,44.6,44.6,100,29.53,6.0,NE,15.0,-,N/A,,Overcast,40,2013-02-27 10:52:00
5:55 AM,44.8,44.4,99,29.54,6.0,NE,16.1,-,0.01,,Overcast,40,2013-02-27 10:55:00
6:32 AM,44.6,44.6,100,29.52,8.0,NE,15.0,-,N/A,,Overcast,40,2013-02-27 11:32:00
6:48 AM,44.6,44.6,100,29.51,4.0,NE,16.1,-,N/A,Rain,Light Rain,40,2013-02-27 11:48:00
6:50 AM,44.6,44.6,100,29.51,4.0,NE,16.1,-,N/A,,Overcast,50,2013-02-27 11:50:00
6:55 AM,45.1,45.0,99,29.51,4.0,NE,13.8,-,0.00,,Overcast,50,2013-02-27 11:55:00
7:23 AM,46.4,44.6,93,29.50,2.5,NE,15.0,-,N/A,,Overcast,50,2013-02-27 12:23:00
7:41 AM,46.4,46.4,100,29.49,3.0,ENE,13.8,-,N/A,,Overcast,60,2013-02-27 12:41:00
7:55 AM,46.4,46.2,99,29.49,3.0,NE,12.7,-,N/A,,Overcast,50,2013-02-27 12:55:00
8:11 AM,46.4,46.4,100,29.49,2.5,ENE,9.2,-,N/A,,Overcast,60,2013-02-27 13:11:00
8:32 AM,48.2,46.4,93,29.50,1.8,ENE,9.2,-,N/A,,Overcast,70,2013-02-27 13:32:00
8:35 AM,48.2,46.4,93,29.49,1.5,ENE,10.4,-,N/A,,Overcast,60,2013-02-27 13:35:00
8:42 AM,48.2,48.2,100,29.49,1.5,ENE,9.2,-,N/A,,Overcast,60,2013-02-27 13:42:00
8:43 AM,48.2,48.2,100,29.49,1.2,ENE,9.2,-,N/A,,Overcast,60,2013-02-27 13:43:00
8:55 AM,48.0,47.7,99,29.50,1.2,East,9.2,-,N/A,,Overcast,80,2013-02-27 13:55:00
9:04 AM,48.2,48.2,100,29.51,1.5,Variable,4.6,-,N/A,,Overcast,0,2013-02-27 14:04:00
9:19 AM,48.2,48.2,100,29.50,1.8,East,3.5,-,N/A,,Overcast,90,2013-02-27 14:19:00
9:25 AM,48.2,48.2,100,29.51,2.0,Calm,Calm,-,N/A,,Overcast,0,2013-02-27 14:25:00
9:41 AM,50.0,48.2,94,29.51,3.0,Calm,Calm,-,N/A,,Overcast,0,2013-02-27 14:41:00
9:55 AM,50.0,49.6,99,29.50,7.0,East,3.5,-,N/A,,Overcast,90,2013-02-27 14:55:00
10:12 AM,50.0,50.0,100,29.49,5.0,SE,3.5,-,N/A,,Overcast,130,2013-02-27 15:12:00
10:55 AM,51.8,51.4,99,29.50,10.0,WSW,11.5,-,N/A,,Overcast,240,2013-02-27 15:55:00
11:03 AM,51.8,51.8,100,29.51,10.0,WSW,12.7,-,N/A,,Overcast,240,2013-02-27 16:03:00
11:17 AM,51.8,50.0,94,29.51,10.0,WSW,17.3,-,N/A,,Overcast,250,2013-02-27 16:17:00
11:26 AM,50.0,50.0,100,29.51,10.0,WSW,19.6,-,N/A,,Overcast,240,2013-02-27 16:26:00
11:39 AM,50.0,50.0,100,29.51,10.0,WSW,15.0,24.2,N/A,,Overcast,240,2013-02-27 16:39:00
11:55 AM,50.5,49.5,96,29.51,10.0,WSW,16.1,-,N/A,,Overcast,250,2013-02-27 16:55:00
12:26 PM,50.0,46.4,87,29.51,10.0,West,16.1,-,N/A,,Overcast,270,2013-02-27 17:26:00
12:38 PM,50.0,46.4,87,29.52,10.0,West,16.1,23.0,N/A,,Overcast,270,2013-02-27 17:38:00
12:55 PM,49.5,45.5,86,29.52,10.0,West,15.0,25.3,N/A,,Overcast,280,2013-02-27 17:55:00
1:20 PM,50.0,44.6,82,29.52,10.0,WNW,13.8,23.0,N/A,,Overcast,290,2013-02-27 18:20:00
1:21 PM,50.0,44.6,82,29.52,10.0,WNW,16.1,23.0,N/A,,Overcast,290,2013-02-27 18:21:00
1:27 PM,51.8,44.6,76,29.52,10.0,WNW,17.3,24.2,N/A,,Mostly Cloudy,290,2013-02-27 18:27:00
1:31 PM,51.8,42.8,71,29.53,10.0,West,18.4,24.2,N/A,,Mostly Cloudy,280,2013-02-27 18:31:00
1:55 PM,52.3,41.4,66,29.53,10.0,WNW,16.1,25.3,N/A,,Mostly Cloudy,290,2013-02-27 18:55:00
2:52 PM,53.6,41.0,62,29.55,10.0,WNW,16.1,23.0,N/A,,Scattered Clouds,290,2013-02-27 19:52:00
2:55 PM,52.5,40.3,63,29.56,10.0,WNW,15.0,23.0,N/A,,Scattered Clouds,290,2013-02-27 19:55:00
3:55 PM,50.2,36.9,60,29.58,10.0,West,19.6,27.6,N/A,,Overcast,280,2013-02-27 20:55:00
4:55 PM,48.9,37.4,64,29.61,10.0,WNW,9.2,-,N/A,,Overcast,290,2013-02-27 21:55:00
5:55 PM,48.0,37.0,66,29.62,10.0,West,5.8,-,N/A,,Overcast,280,2013-02-27 22:55:00
6:55 PM,45.3,36.5,71,29.63,10.0,NNW,3.5,-,N/A,,Scattered Clouds,330,2013-02-27 23:55:00
7:55 PM,41.4,38.1,88,29.65,10.0,Calm,Calm,-,N/A,,Overcast,0,2013-02-28 00:55:00
8:55 PM,42.3,39.0,88,29.66,10.0,Calm,Calm,-,N/A,,Overcast,0,2013-02-28 01:55:00
9:55 PM,44.1,38.1,80,29.66,10.0,Calm,Calm,-,N/A,,Overcast,0,2013-02-28 02:55:00
10:55 PM,43.5,37.4,79,29.65,10.0,Calm,Calm,-,N/A,,Overcast,0,2013-02-28 03:55:00
11:55 PM,41.9,37.6,85,29.62,10.0,Calm,Calm,-,N/A,,Overcast,0,2013-02-28 04:55:00